�N����,����,�~����,�C��,���x,�C��,����,���ϕ���,�ő�u�ԕ���,�ő厞����,���˗�,�I�_���x,�n�����x,�ő啗���N��,DTYPE
"19/08/01","00:10",0.0,26.1,89.4,1005.7,300.2,0.5,1.3,317.6,0.00,24.3,27.7,"00:08:48",1
"19/08/01","00:20",0.0,26.0,90.0,1006.2,288.2,0.7,1.1,275.7,0.00,24.3,27.7,"00:17:20",1
"19/08/01","00:30",0.0,26.0,90.2,1006.0,317.4,1.2,2.1,346.6,0.00,24.3,27.7,"00:29:36",1
"19/08/01","00:40",0.0,26.0,90.3,1006.0,299.4,1.0,2.4,347.4,0.00,24.3,27.5,"00:38:00",1
"19/08/01","00:50",0.0,26.0,90.2,1006.0,308.7,1.3,2.4,314.4,0.00,24.3,27.4,"00:44:40",1
"19/08/01","01:00",0.0,25.9,90.3,1006.0,299.5,1.0,1.6,314.8,0.00,24.2,27.3,"00:52:40",1
"19/08/01","01:10",0.0,26.0,90.3,1006.0,304.3,1.2,2.9,342.7,0.00,24.3,27.5,"01:02:24",1
"19/08/01","01:20",0.0,25.9,90.4,1006.0,323.2,1.0,1.6,330.9,0.00,24.2,27.3,"01:13:36",1
"19/08/01","01:30",0.0,25.7,90.5,1005.7,310.7,1.1,2.1,323.4,0.00,24.1,27.1,"01:22:24",1
"19/08/01","01:40",0.0,25.8,90.7,1005.7,327.1,1.6,2.6,337.9,0.00,24.2,27.2,"01:34:56",1
"19/08/01","01:50",0.0,25.7,90.9,1006.0,292.0,0.8,1.6,322.5,0.00,24.1,27.2,"01:44:08",1
"19/08/01","02:00",0.0,25.6,90.8,1006.2,278.4,0.8,1.2,291.9,0.00,24.0,27.1,"01:59:52",1
"19/08/01","02:10",0.0,25.6,91.2,1005.7,293.3,1.0,1.8,329.4,0.00,24.1,27.1,"02:04:32",1
"19/08/01","02:20",0.0,25.6,91.2,1006.2,316.6,1.5,2.6,343.0,0.00,24.1,27.1,"02:19:52",1
"19/08/01","02:30",0.0,25.5,91.2,1005.7,330.1,1.7,2.6,339.3,0.00,24.0,27.0,"02:23:28",1
"19/08/01","02:40",0.0,25.5,91.3,1006.2,294.5,0.8,1.8,331.4,0.00,24.0,27.1,"02:30:56",1
"19/08/01","02:50",0.0,25.3,91.4,1006.2,304.3,0.2,0.6,285.1,0.00,23.8,26.9,"02:40:08",1
"19/08/01","03:00",0.0,25.3,91.8,1006.2,291.5,0.5,0.8,310.2,0.00,23.9,27.0,"02:52:24",1
"19/08/01","03:10",0.0,25.2,91.9,1006.0,302.3,0.6,1.0,325.8,0.00,23.8,26.7,"03:07:24",1
"19/08/01","03:20",0.0,25.2,91.9,1006.0,322.7,0.7,1.7,337.7,0.00,23.8,26.8,"03:18:24",1
"19/08/01","03:30",0.0,25.1,92.0,1006.2,297.0,0.6,0.9,319.5,0.00,23.7,26.9,"03:29:28",1
"19/08/01","03:40",0.0,25.0,92.4,1006.4,293.3,0.7,1.0,306.6,0.00,23.7,26.7,"03:36:08",1
"19/08/01","03:50",0.0,25.0,92.2,1006.4,292.1,0.7,1.6,281.3,0.00,23.7,26.7,"03:45:36",1
"19/08/01","04:00",0.0,24.9,92.3,1006.2,330.3,1.0,1.6,321.6,0.00,23.6,26.7,"03:50:32",1
"19/08/01","04:10",0.0,24.8,92.6,1006.0,309.5,0.8,1.6,341.0,0.00,23.6,26.7,"04:01:20",1
"19/08/01","04:20",0.0,24.7,92.5,1006.0,279.9,0.7,1.2,309.8,0.00,23.4,26.8,"04:15:28",1
"19/08/01","04:30",0.0,24.8,92.8,1006.2,279.0,0.7,1.2,257.3,0.00,23.6,26.6,"04:28:56",1
"19/08/01","04:40",0.0,24.8,92.8,1006.2,305.9,0.8,1.6,339.0,0.00,23.6,26.5,"04:39:52",1
"19/08/01","04:50",0.0,24.8,92.8,1006.4,313.6,0.8,1.6,314.8,0.00,23.6,26.4,"04:48:24",1
"19/08/01","05:00",0.0,24.7,92.9,1006.4,345.6,0.8,1.4,343.4,0.00,23.5,26.5,"04:52:32",1
"19/08/01","05:10",0.0,24.7,92.9,1006.2,312.7,0.8,1.8,336.4,0.00,23.5,26.5,"05:03:44",1
"19/08/01","05:20",0.0,24.6,92.9,1006.4,292.1,0.6,1.1,337.1,0.00,23.4,26.4,"05:15:44",1
"19/08/01","05:30",0.0,24.5,93.2,1006.7,315.8,0.8,1.6,353.8,0.00,23.4,26.4,"05:28:00",1
"19/08/01","05:40",0.0,24.4,93.3,1006.9,313.4,1.0,1.6,340.4,0.00,23.3,26.3,"05:32:48",1
"19/08/01","05:50",0.0,24.3,93.4,1006.9,298.6,0.7,1.2,333.7,0.00,23.2,26.3,"05:46:16",1
"19/08/01","06:00",0.0,24.4,93.5,1007.1,267.8,0.6,1.1,276.5,0.00,23.3,26.2,"05:56:56",1
"19/08/01","06:10",0.0,24.5,93.5,1007.1,271.0,0.8,1.2,245.4,0.00,23.4,26.4,"06:05:04",1
"19/08/01","06:20",0.0,24.7,93.4,1007.4,328.9,1.1,1.8,331.8,0.00,23.6,26.1,"06:15:20",1
"19/08/01","06:30",0.0,24.9,93.4,1007.6,333.8,0.8,1.4,334.8,0.01,23.8,26.4,"06:20:08",1
"19/08/01","06:40",0.0,25.1,93.1,1007.4,318.0,0.3,1.0,334.1,0.02,23.9,26.3,"06:36:56",1
"19/08/01","06:50",0.0,25.5,92.7,1007.6,327.6,0.8,1.3,341.4,0.03,24.3,26.3,"06:46:32",1
"19/08/01","07:00",0.0,25.8,92.3,1007.4,331.8,1.0,1.6,338.7,0.04,24.5,26.4,"06:55:04",1
"19/08/01","07:10",0.0,26.4,91.8,1007.8,321.3,0.5,1.1,350.4,0.06,25.0,26.3,"07:06:24",1
"19/08/01","07:20",0.0,26.7,90.7,1007.6,275.8,0.2,0.6,251.7,0.08,25.1,26.4,"07:13:44",1
"19/08/01","07:30",0.0,27.7,88.1,1007.1,20.3,0.3,1.0,59.7,0.09,25.6,26.6,"07:21:36",1
"19/08/01","07:40",0.0,27.9,85.8,1006.7,193.9,0.3,0.8,119.4,0.11,25.3,26.6,"07:38:32",1
"19/08/01","07:50",0.0,28.4,81.8,1007.1,123.4,0.3,1.0,118.8,0.13,25.0,26.8,"07:48:08",1
"19/08/01","08:00",0.0,28.9,80.7,1007.6,141.8,0.6,1.3,118.2,0.15,25.3,27.1,"07:52:00",1
"19/08/01","08:10",0.0,29.2,79.3,1007.6,61.9,0.6,1.1,7.2,0.18,25.3,26.9,"08:00:16",1
"19/08/01","08:20",0.0,29.5,76.1,1008.1,99.8,0.6,1.3,126.3,0.20,24.9,27.1,"08:11:44",1
"19/08/01","08:30",0.0,29.8,76.9,1008.3,150.6,0.3,1.0,219.9,0.22,25.3,27.2,"08:24:48",1
"19/08/01","08:40",0.0,30.1,74.6,1008.3,30.4,1.0,1.7,21.9,0.24,25.1,27.5,"08:36:32",1
"19/08/01","08:50",0.0,30.1,74.9,1008.3,23.8,1.1,1.9,13.2,0.26,25.2,27.6,"08:40:40",1
"19/08/01","09:00",0.0,30.5,74.3,1008.3,34.8,1.0,2.1,349.2,0.28,25.4,27.5,"08:59:36",1
"19/08/01","09:10",0.0,30.8,72.6,1008.3,40.1,0.8,2.1,11.8,0.30,25.3,27.9,"09:07:44",1
"19/08/01","09:20",0.0,31.2,72.1,1008.6,33.8,0.8,2.1,9.2,0.32,25.6,28.0,"09:17:52",1
"19/08/01","09:30",0.0,31.3,69.9,1008.6,26.7,1.1,2.0,356.9,0.34,25.2,28.1,"09:29:12",1
"19/08/01","09:40",0.0,31.6,69.3,1008.8,89.1,0.7,1.9,38.3,0.35,25.3,28.3,"09:36:56",1
"19/08/01","09:50",0.0,32.3,68.6,1008.8,74.9,1.0,2.8,356.7,0.38,25.8,28.5,"09:45:52",1
"19/08/01","10:00",0.0,32.2,66.9,1009.0,97.9,0.8,2.7,53.1,0.39,25.3,28.7,"09:55:28",1
"19/08/01","10:10",0.0,32.3,66.3,1009.3,237.8,0.7,2.2,223.4,0.38,25.2,29.2,"10:09:36",1
"19/08/01","10:20",0.0,32.5,66.6,1009.5,226.5,1.5,3.5,209.6,0.37,25.5,29.0,"10:15:28",1
"19/08/01","10:30",0.0,32.5,67.1,1009.3,303.0,1.0,2.4,241.1,0.32,25.6,29.1,"10:20:24",1
"19/08/01","10:40",0.0,32.8,66.9,1009.0,209.2,1.0,2.4,231.4,0.37,25.9,29.5,"10:36:08",1
"19/08/01","10:50",0.0,32.9,63.9,1009.5,81.8,1.1,2.5,67.2,0.49,25.2,29.6,"10:48:08",1
"19/08/01","11:00",0.0,32.9,65.1,1009.5,182.6,1.3,3.3,201.8,0.42,25.5,29.7,"10:53:44",1
"19/08/01","11:10",0.0,33.7,64.9,1009.0,340.4,1.0,2.6,336.9,0.51,26.2,29.9,"11:01:20",1
"19/08/01","11:20",0.0,33.6,62.5,1009.5,281.0,0.8,3.5,220.9,0.49,25.5,30.3,"11:18:08",1
"19/08/01","11:30",0.0,33.8,61.7,1009.5,321.7,0.6,2.0,332.5,0.36,25.5,30.3,"11:20:16",1
"19/08/01","11:40",0.0,34.5,60.7,1009.0,219.2,1.3,3.5,228.0,0.52,25.8,30.5,"11:36:40",1
"19/08/01","11:50",0.0,33.6,61.3,1009.3,276.7,1.1,2.6,227.3,0.41,25.2,30.6,"11:42:56",1
"19/08/01","12:00",0.0,33.2,63.3,1008.8,318.3,0.8,3.1,341.1,0.18,25.3,30.6,"11:51:52",1
"19/08/01","12:10",0.0,34.0,61.0,1008.3,227.4,1.5,4.3,220.2,0.47,25.5,30.6,"12:08:32",1
"19/08/01","12:20",0.0,33.4,62.3,1008.1,312.6,0.8,2.4,325.3,0.21,25.2,31.0,"12:13:36",1
"19/08/01","12:30",0.0,34.0,61.9,1008.1,356.4,1.5,2.8,341.6,0.36,25.7,30.9,"12:25:52",1
"19/08/01","12:40",0.0,33.5,62.8,1008.1,347.6,1.0,2.2,12.0,0.19,25.5,31.0,"12:30:08",1
"19/08/01","12:50",0.0,33.6,62.2,1007.6,328.5,1.0,2.0,351.0,0.24,25.4,30.7,"12:45:44",1
"19/08/01","13:00",0.0,34.2,59.9,1007.4,356.2,1.7,4.1,347.3,0.38,25.3,30.8,"12:52:56",1
"19/08/01","13:10",0.0,34.0,61.9,1007.1,94.8,1.0,1.9,313.2,0.29,25.7,31.0,"13:00:40",1
"19/08/01","13:20",0.0,34.8,60.3,1007.6,99.0,1.3,3.2,120.3,0.53,26.0,31.2,"13:19:28",1
"19/08/01","13:30",0.0,33.8,64.0,1007.4,120.4,1.8,3.3,119.8,0.48,26.1,31.2,"13:23:52",1
"19/08/01","13:40",0.0,33.2,64.9,1007.4,123.9,1.7,3.1,125.8,0.20,25.7,31.1,"13:30:16",1
"19/08/01","13:50",0.0,32.6,66.7,1006.7,129.5,1.6,3.3,137.9,0.14,25.6,31.0,"13:41:52",1
"19/08/01","14:00",0.0,32.6,66.7,1006.7,133.4,1.3,2.5,111.0,0.11,25.6,31.0,"13:50:24",1
"19/08/01","14:10",0.0,33.3,62.8,1006.4,117.8,0.8,1.9,190.9,0.14,25.3,30.9,"14:00:48",1
"19/08/01","14:20",0.0,33.9,65.3,1006.4,126.1,0.6,1.8,117.4,0.25,26.5,31.1,"14:12:48",1
"19/08/01","14:30",0.0,34.4,58.4,1006.9,115.0,1.1,2.5,96.4,0.45,25.1,31.0,"14:20:56",1
"19/08/01","14:40",0.0,34.2,62.9,1007.1,180.2,1.2,3.2,218.9,0.22,26.2,31.2,"14:32:08",1
"19/08/01","14:50",0.0,34.4,61.9,1006.7,139.4,0.8,1.9,115.6,0.25,26.1,31.0,"14:46:16",1
"19/08/01","15:00",0.0,33.9,63.7,1006.7,83.6,1.0,2.0,41.7,0.12,26.1,31.2,"14:50:56",1
"19/08/01","15:10",0.0,33.9,63.3,1006.2,73.0,0.6,1.7,114.0,0.12,26.0,30.9,"15:09:04",1
"19/08/01","15:20",0.0,33.5,63.4,1005.7,81.9,0.8,1.7,112.2,0.03,25.6,31.1,"15:12:40",1
"19/08/01","15:30",0.0,33.5,66.8,1005.5,24.5,0.6,1.9,10.5,0.04,26.5,30.8,"15:28:16",1
"19/08/01","15:40",0.0,32.4,71.9,1005.0,347.2,1.2,2.5,342.5,0.05,26.7,30.8,"15:37:12",1
"19/08/01","15:50",0.0,32.2,73.7,1005.0,349.7,1.0,1.7,352.3,0.10,26.9,30.7,"15:49:12",1
"19/08/01","16:00",0.0,33.6,67.4,1005.0,6.7,1.1,2.6,346.1,0.32,26.8,30.8,"15:52:24",1
"19/08/01","16:10",0.0,34.4,61.5,1005.2,330.3,0.8,2.4,331.0,0.34,26.0,31.0,"16:01:28",1
"19/08/01","16:20",0.0,34.8,59.3,1005.5,193.8,0.7,1.6,23.4,0.30,25.7,31.0,"16:17:44",1
"19/08/01","16:30",0.0,34.5,59.2,1005.7,158.5,0.7,1.8,105.1,0.25,25.4,31.0,"16:22:32",1
"19/08/01","16:40",0.0,33.7,61.9,1005.5,136.7,1.0,1.8,138.5,0.15,25.4,30.9,"16:36:16",1
"19/08/01","16:50",0.0,34.5,59.3,1005.5,327.7,0.3,1.3,96.1,0.09,25.4,30.8,"16:40:24",1
"19/08/01","17:00",0.0,34.2,60.0,1005.5,339.3,0.3,1.1,345.2,0.05,25.4,31.0,"16:54:32",1
"19/08/01","17:10",0.0,33.8,63.8,1005.0,23.8,0.5,1.1,63.0,0.04,26.0,31.0,"17:07:52",1
"19/08/01","17:20",0.0,33.6,66.4,1004.8,2.7,0.7,1.2,7.7,0.07,26.5,30.8,"17:12:00",1
"19/08/01","17:30",0.0,32.9,70.2,1004.3,347.6,1.2,2.2,348.5,0.13,26.8,30.7,"17:24:32",1
"19/08/01","17:40",0.0,33.7,64.2,1004.1,5.1,0.8,2.1,348.9,0.16,26.0,30.7,"17:33:36",1
"19/08/01","17:50",0.0,34.2,60.2,1005.0,32.3,0.6,1.6,85.3,0.15,25.4,30.8,"17:46:16",1
"19/08/01","18:00",0.0,34.3,59.4,1004.8,14.4,0.6,1.7,349.0,0.11,25.3,30.7,"17:52:08",1
"19/08/01","18:10",0.0,34.7,57.8,1005.0,346.7,0.8,2.1,336.7,0.08,25.2,30.9,"18:04:32",1
"19/08/01","18:20",0.0,34.2,59.4,1004.8,346.1,0.8,1.6,356.8,0.05,25.2,30.9,"18:11:20",1
"19/08/01","18:30",0.0,33.5,60.4,1004.5,335.1,0.7,1.4,314.3,0.03,24.8,30.7,"18:24:32",1
"19/08/01","18:40",0.0,33.0,62.0,1004.5,347.2,0.8,1.7,342.3,0.01,24.8,30.6,"18:36:40",1
"19/08/01","18:50",0.0,32.7,66.1,1004.3,355.3,0.6,1.0,342.2,0.01,25.6,30.4,"18:40:40",1
"19/08/01","19:00",0.0,31.9,67.5,1004.1,355.4,0.7,1.4,348.1,0.00,25.2,30.4,"18:56:56",1
"19/08/01","19:10",0.0,31.5,69.2,1003.8,343.8,0.5,1.2,348.9,0.00,25.2,30.2,"19:08:16",1
"19/08/01","19:20",0.0,30.8,70.6,1003.4,330.6,0.7,2.0,349.1,0.00,24.9,30.2,"19:12:08",1
"19/08/01","19:30",0.0,30.5,71.4,1003.4,308.1,0.5,1.1,350.1,0.00,24.8,29.9,"19:27:12",1
"19/08/01","19:40",0.0,30.2,71.8,1003.4,313.8,0.6,1.6,339.5,0.00,24.6,30.1,"19:30:02",1
"19/08/01","19:50",0.0,30.2,72.3,1003.1,339.9,0.3,1.7,338.3,0.00,24.7,29.8,"19:49:28",1
"19/08/01","20:00",0.0,29.8,72.5,1002.6,293.6,0.6,1.1,340.7,0.00,24.4,29.7,"19:51:20",1
"19/08/01","20:10",0.0,29.6,73.6,1003.1,315.6,0.7,1.7,6.7,0.00,24.4,29.6,"20:06:16",1
"19/08/01","20:20",0.0,29.1,75.6,1003.1,328.8,1.0,2.5,319.7,0.00,24.4,29.5,"20:12:24",1
"19/08/01","20:30",0.0,29.0,76.0,1003.4,293.5,0.7,1.7,29.8,0.00,24.4,29.5,"20:22:32",1
"19/08/01","20:40",0.0,28.5,77.3,1003.4,280.9,0.2,0.6,291.0,0.00,24.2,29.4,"20:31:36",1
"19/08/01","20:50",0.0,28.3,78.2,1004.1,262.0,0.6,1.7,257.6,0.00,24.2,29.1,"20:47:20",1
"19/08/01","21:00",0.0,28.3,78.6,1003.8,315.5,0.7,1.3,323.3,0.00,24.3,29.2,"20:57:28",1
"19/08/01","21:10",0.0,28.1,79.0,1004.1,318.8,0.8,1.8,346.3,0.00,24.2,29.0,"21:00:02",1
"19/08/01","21:20",0.0,27.9,79.6,1004.8,322.8,1.0,2.2,330.0,0.00,24.1,28.7,"21:10:08",1
"19/08/01","21:30",0.0,27.8,79.9,1004.5,278.3,0.7,1.8,230.9,0.00,24.1,28.7,"21:28:00",1
"19/08/01","21:40",0.0,27.8,79.5,1004.5,293.2,0.7,1.4,254.8,0.00,24.0,28.8,"21:39:12",1
"19/08/01","21:50",0.0,27.8,79.5,1004.3,277.8,0.6,1.0,275.8,0.00,24.0,28.7,"21:41:36",1
"19/08/01","22:00",0.0,27.8,79.5,1004.5,305.3,1.0,2.2,322.1,0.00,24.0,28.5,"21:59:12",1
"19/08/01","22:10",0.0,27.7,79.5,1004.8,274.8,0.6,1.1,335.7,0.00,23.9,28.7,"22:01:12",1
"19/08/01","22:20",0.0,27.6,79.5,1004.8,292.7,0.7,1.4,241.6,0.00,23.8,28.4,"22:14:32",1
"19/08/01","22:30",0.0,27.4,80.2,1004.8,296.9,0.6,1.4,312.4,0.00,23.7,28.3,"22:27:20",1
"19/08/01","22:40",0.0,27.5,80.5,1004.8,320.1,1.5,2.5,336.3,0.00,23.9,28.2,"22:36:00",1
"19/08/01","22:50",0.0,27.4,80.7,1004.5,331.2,1.3,2.2,330.4,0.00,23.8,28.2,"22:47:44",1
"19/08/01","23:00",0.0,27.3,80.8,1004.8,326.2,1.0,1.4,339.2,0.00,23.8,28.2,"22:53:12",1
"19/08/01","23:10",0.0,27.2,81.1,1004.8,335.2,1.2,2.5,338.6,0.00,23.7,28.1,"23:07:52",1
"19/08/01","23:20",0.0,27.2,81.4,1005.0,333.8,1.5,2.9,343.5,0.00,23.8,28.1,"23:10:02",1
"19/08/01","23:30",0.0,27.2,81.3,1005.0,345.1,1.5,2.5,357.3,0.00,23.8,28.0,"23:20:40",1
"19/08/01","23:40",0.0,27.3,80.7,1004.8,344.0,1.7,3.3,344.9,0.00,23.7,27.8,"23:31:20",1
"19/08/01","23:50",0.0,27.3,80.8,1004.8,348.7,1.2,2.4,340.0,0.00,23.8,27.9,"23:46:56",1
"19/08/01","24:00",0.0,27.2,80.9,1005.0,330.2,1.0,1.6,337.3,0.00,23.7,27.8,"23:50:56",1
